Regional Weather Roundup
Issued by NWS

Home | Current Version | Previous Version | Text Only | Print | Product List | Glossary Off
Versions: 1 2 3 4 5 6 7 8 9 10 11 12 13 14 15 16 17 18 19 20 21 22 23 24 25 26 27 28 29 30 31 32 33 34 35 36 37 38 39 40 41 42 43 44 45 46 47 48 49 50

000
ASUS43 KLSX 250007
RWRMO

WEATHER SUMMARY FOR MISSOURI
NATIONAL WEATHER SERVICE SPRINGFIELD MO
700 PM CDT SUN MAY 24 2015

NOTE: "FAIR" INDICATES FEW OR NO CLOUDS BELOW 12,000 FEET WITH NO
       SIGNIFICANT WEATHER AND/OR OBSTRUCTIONS TO VISIBILITY.
       CURRENT SKY AND/OR WEATHER CONDITIONS ARE NOT AVAILABLE FOR
       CHILLICOTHE AND FARMINGTON.

MOZ001>031-035>038-043-044-053-054-250100-
...NORTHERN AND WESTERN MISSOURI...

CITY           SKY/WX    TMP DP  RH WIND       PRES   REMARKS
KANSAS CTY INT LGT RAIN  67  64  90 SW6       29.84F
6HR MIN TEMP:  67; 6HR MAX TEMP:  70; 6HR PCP:  0.09;

KANSAS C DTWN  LGT RAIN  68  63  84 S6        29.83F
6HR MIN TEMP:  67; 6HR MAX TEMP:  72; 6HR PCP:  0.01;

LEE`S SUMMIT   LGT RAIN  65  61  87 S5        29.85F
6HR MIN TEMP:  65; 6HR MAX TEMP:  69; 6HR PCP:  0.11;

ST JOSEPH      LGT RAIN  68  65  90 S7        29.82F
6HR MIN TEMP:  68; 6HR MAX TEMP:  71; 6HR PCP:  0.01;

CHILLICOTHE      N/A     67  65  93 S6        29.85S
6HR MIN TEMP:  66; 6HR MAX TEMP:  72; 6HR PCP:  0.19;

KIRKSVILLE     CLOUDY    69  66  90 W10       29.85R
6HR MIN TEMP:  68; 6HR MAX TEMP:  73; 6HR PCP:  0.17;


$$
MOZ066>068-077>081-088>096-101>105-250100-
...SOUTHWEST MISSOURI...

CITY           SKY/WX    TMP DP  RH WIND       PRES   REMARKS
SPRINGFIELD    CLOUDY    66  63  90 E5        29.84F
6HR MIN TEMP:  66; 6HR MAX TEMP:  69; 6HR PCP:  0.18;

JOPLIN         CLOUDY    66  64  93 NE3       29.84S
6HR MIN TEMP:  66; 6HR MAX TEMP:  68; 6HR PCP:  0.09;


$$
MOZ032>034-039>042-045>050-055>058-069>072-250100-
...CENTRAL MISSOURI...

CITY           SKY/WX    TMP DP  RH WIND       PRES   REMARKS
COLUMBIA       LGT RAIN  70  68  93 S5        29.87S
6HR MIN TEMP:  68; 6HR MAX TEMP:  81; 6HR PCP:  0.13;

JEFFERSON CITY LGT RAIN  69  67  93 SE5       29.86F
6HR MIN TEMP:  69; 6HR MAX TEMP:  83; 6HR PCP:  0.42;

ROLLA          CLOUDY    66  64  93 S8G16     29.88S THUNDER
6HR MIN TEMP:  64; 6HR MAX TEMP:  81; 6HR PCP:  0.30;

SEDALIA        LGT RAIN  69  63  81 W5        29.87F
6HR MIN TEMP:  69; 6HR MAX TEMP:  78; 6HR PCP:  0.03;

WHITEMAN AFB   LGT RAIN  67  65  94 CALM      29.84F
WARRENSBURG    RAIN      64  63  94 CALM      29.84F
OSAGE BEACH    CLOUDY    68  64  88 SW3       29.87F

$$
MOZ051-052-059>065-250100-
...EAST CENTRAL MISSOURI...

CITY           SKY/WX    TMP DP  RH WIND       PRES   REMARKS
ST LOUIS INTL  PTSUNNY   82  64  54 S14G28    29.90F
6HR MIN TEMP:  82; 6HR MAX TEMP:  87;

SPIRIT OF STL  RAIN      75  68  78 S15G33    29.89R
6HR MIN TEMP:  79; 6HR MAX TEMP:  85; 6HR PCP:  0.02;

ST CHARLES     PTSUNNY   80  64  58 S22G32    29.87F
6HR MIN TEMP:  80; 6HR MAX TEMP:  86;


$$
MOZ072>076-082>087-097>100-106>115-250100-
...SOUTH CENTRAL AND SOUTHEAST MISSOURI...

CITY           SKY/WX    TMP DP  RH WIND       PRES   REMARKS
CAPE GIRARDEAU PTSUNNY   80  66  62 SE18G25   29.93F
6HR MIN TEMP:  80; 6HR MAX TEMP:  85;

FARMINGTON     CLOUDY    75  66  73 SE7       29.95F
6HR MIN TEMP:  75; 6HR MAX TEMP:  82;

POPLAR BLUFF   PTSUNNY   80  66  62 S13G22    29.90F
6HR MIN TEMP:  80; 6HR MAX TEMP:  84;

WEST PLAINS    LGT RAIN  70  66  87 S13G20    29.92R
6HR MIN TEMP:  69; 6HR MAX TEMP:  79; 6HR PCP:  0.21;


$$


USA.gov is the U.S. government's official web portal to all federal, state and local government web resources and services.